{"data":{"norad_id":52122,"intl_designator":"2022-029AL","name":"STARLINK-3726","alt_names":[],"object_type":"PAYLOAD","status":"ACTIVE","operator":null,"country":"US","launch_date":"2022-03-19","launch_site_code":"AFETR","launch_vehicle":null,"mission":null,"orbit_class":"UNKNOWN","rcs_meters":null,"size_class":null,"mass_kg":null,"dimensions":null,"purposes":["comms"],"wikipedia_slug":null,"has_3d_model":false,"image_url":null,"decayed_at":null,"tle_current":{"epoch":"2026-09-19T18:04:26.295168Z","epoch_age_seconds":120700,"freshness":"FRESH","line1":"1 52122U 22029AL  26262.75308212  .00000869  00000+0  37750-4 0  9991","line2":"2 52122  53.1585 273.4059 0000977  79.8069 280.3044 15.33546918250286","mean_motion":15.33546918,"eccentricity":9.77e-5,"inclination_deg":53.1585,"raan_deg":273.4059,"arg_perigee_deg":79.8069,"mean_anomaly_deg":280.3044,"bstar":3.775e-5,"rev_number":25028,"period_min":93.89996374405,"perigee_km":464.57135708115,"apogee_km":465.90855293816,"semimajor_km":6843.3769550097,"source":"CELESTRAK","updated_at":"2026-09-20T09:00:39.990104Z"}}}